Preview of NWS' New Version of Forecast
This preview is not operational and should not be used for support decisions.

Regional Weather Roundup (RWR)

Issued by National Weather Service (NWS)

                            
000
ASUS45 KCYS 180310
RWRWY 

WYOMING REGIONAL WEATHER ROUNDUP
NATIONAL WEATHER SERVICE CHEYENNE WY
900 PM MDT MON JUN 17 2019

NOTE:  "FAIR" INDICATES FEW OR NO CLOUDS BELOW 12,000 FEET
WITH NO SIGNIFICANT WEATHER AND/OR OBSTRUCTIONS TO VISIBILITY.

WYZ001-180400-
...YELLOWSTONE NATIONAL PARK...
  
CITY           SKY/WX    TMP DP  RH WIND       PRES   REMARKS
LK YELLOWSTONE NOT AVBL                                               
W YELLOWSTONE  NOT AVBL                                               

$$
WYZ002>013-054>058-071-098>099-180400-
...NORTHERN WYOMING...
  
CITY           SKY/WX    TMP DP  RH WIND       PRES   REMARKS
JACKSON        CLOUDY    53  45  74 CALM      30.19R                  
CODY           CLOUDY    59  52  77 SW5       30.13R                  
GREYBULL       MOCLDY    66  53  63 NW9       30.02R HAZE             
WORLAND        CLOUDY    65  51  60 NW8       30.03S                  
SHERIDAN       MOCLDY    60  53  77 CALM      30.05S                  
BUFFALO        CLOUDY    58  50  75 SW5       30.11R                  
GILLETTE       PTCLDY    56  52  86 S8        30.07S                  
HULETT         NOT AVBL                                               
NEWCASTLE      FAIR      55  48  76 SE5       30.11R                  

$$
WYZ014>020-022>026-101>103-180400-
...CENTRAL WYOMING...
  
CITY           SKY/WX    TMP DP  RH WIND       PRES   REMARKS
BIG PINEY      MOCLDY    55  46  71 S5        30.21R                  
PINEDALE       CLOUDY    55  43  62 S6        30.21S                  
DUBOIS         CLOUDY    50  43  76 NW13      30.23R                  
LANDER         CLOUDY    58  51  78 E6        30.12R                  
RIVERTON       CLOUDY    57  53  86 S3        30.13R                  
CASPER         MOCLDY    58  53  84 NE7       30.11F                  
DOUGLAS        MOCLDY    57  53  86 SE5       30.12R                  

$$
WYZ021-027>030-104>119-180400-
...SOUTHERN WYOMING...
  
CITY           SKY/WX    TMP DP  RH WIND       PRES   REMARKS
EVANSTON       CLOUDY    52  45  77 S6        30.20R                  
KEMMERER       CLEAR     54  41  62 NW6       30.21R                  
FORT BRIDGER   NOT AVBL                                               
ROCK SPRINGS   CLOUDY    53  49  86 N7        30.18R                  
DIXON          FAIR      57  43  58 SE12G21   30.18R                  
RAWLINS        MOCLDY    54  49  83 CALM      30.17R                  
SARATOGA       CLOUDY    55  43  62 S6        30.18S                  
LARAMIE        LGT RAIN  53  49  86 E9        30.19R                  
CHEYENNE         N/A    N/A N/A N/A MISG      30.15S                  
TORRINGTON     MOCLDY    60  57  89 E7        30.10R                  
PINE BLUFFS    CLOUDY    55  52  88 NE12      30.12S                  

$$